Previsão horária em Abakaliki

Hoje, 17 Abril, Sábado

Tempo Temperatura Precipitação Vento Pressão Humidade
00:00 +28°C° 0.1 mm 3 m/s 750 mmHg 77%
01:00 +28°C° 0.1 mm 3 m/s 750 mmHg 78%
02:00 +27°C° 0.4 mm 3 m/s 749 mmHg 80%
03:00 +27°C° 0.4 mm 3 m/s 749 mmHg 83%
04:00 +27°C° 0.4 mm 3 m/s 749 mmHg 85%
05:00 +27°C° 0 mm 2 m/s 749 mmHg 85%
06:00 +27°C° 0 mm 2 m/s 750 mmHg 85%
07:00 +27°C° 0 mm 2 m/s 750 mmHg 84%
08:00 +29°C° 0 mm 2 m/s 751 mmHg 78%
09:00 +30°C° 0 mm 3 m/s 751 mmHg 71%
10:00 +31°C° 0 mm 3 m/s 751 mmHg 64%
11:00 +34°C° 0 mm 3 m/s 751 mmHg 58%
12:00 +35°C° 0 mm 3 m/s 750 mmHg 52%
13:00 +37°C° 0 mm 3 m/s 750 mmHg 47%
14:00 +37°C° 0.1 mm 3 m/s 749 mmHg 45%
15:00 +37°C° 0.1 mm 3 m/s 748 mmHg 44%
16:00 +37°C° 0.1 mm 3 m/s 748 mmHg 42%
17:00 +36°C° 0.1 mm 3 m/s 748 mmHg 46%
18:00 +35°C° 0.1 mm 2 m/s 748 mmHg 50%
19:00 +34°C° 0.1 mm 2 m/s 748 mmHg 53%
20:00 +33°C° 0 mm 3 m/s 749 mmHg 57%
21:00 +33°C° 0 mm 4 m/s 750 mmHg 60%
22:00 +32°C° 0 mm 4 m/s 751 mmHg 63%
23:00 +30°C° 0.1 mm 4 m/s 751 mmHg 68%

Amanhã, 18 Abril, Domingo

Tempo Temperatura Precipitação Vento Pressão Humidade
00:00 +29°C° 0.1 mm 4 m/s 750 mmHg 73%
01:00 +28°C° 0.1 mm 4 m/s 750 mmHg 78%
02:00 +28°C° 0 mm 3 m/s 750 mmHg 78%
03:00 +28°C° 0 mm 3 m/s 750 mmHg 79%
04:00 +28°C° 0 mm 3 m/s 750 mmHg 79%
05:00 +28°C° 0 mm 3 m/s 750 mmHg 79%
06:00 +28°C° 0 mm 2 m/s 751 mmHg 80%
07:00 +28°C° 0 mm 2 m/s 751 mmHg 80%
08:00 +29°C° 0 mm 2 m/s 752 mmHg 76%
09:00 +30°C° 0 mm 3 m/s 752 mmHg 71%
10:00 +31°C° 0 mm 3 m/s 752 mmHg 67%
11:00 +31°C° 0 mm 3 m/s 752 mmHg 65%
12:00 +31°C° 0 mm 3 m/s 752 mmHg 63%
13:00 +33°C° 0 mm 4 m/s 751 mmHg 61%
14:00 +34°C° 0 mm 4 m/s 751 mmHg 57%
15:00 +35°C° 0 mm 4 m/s 750 mmHg 52%
16:00 +36°C° 0 mm 4 m/s 750 mmHg 48%
17:00 +35°C° 0 mm 4 m/s 750 mmHg 51%
18:00 +34°C° 0 mm 4 m/s 750 mmHg 55%
19:00 +33°C° 0 mm 4 m/s 749 mmHg 58%
20:00 +31°C° 0 mm 3 m/s 750 mmHg 63%
21:00 +30°C° 0 mm 3 m/s 750 mmHg 68%
22:00 +29°C° 0 mm 3 m/s 751 mmHg 72%
23:00 +29°C° 0 mm 3 m/s 751 mmHg 74%

Depois de amanhã, 19 Abril, Segunda-feira

Tempo Temperatura Precipitação Vento Pressão Humidade
00:00 +29°C° 0 mm 3 m/s 751 mmHg 76%
01:00 +28°C° 0 mm 3 m/s 751 mmHg 78%
02:00 +28°C° 0 mm 3 m/s 751 mmHg 79%
03:00 +28°C° 0 mm 3 m/s 751 mmHg 80%
04:00 +28°C° 0 mm 3 m/s 750 mmHg 82%
05:00 +28°C° 0 mm 3 m/s 751 mmHg 82%
06:00 +28°C° 0 mm 2 m/s 751 mmHg 82%
07:00 +28°C° 0 mm 2 m/s 751 mmHg 82%
08:00 +29°C° 0 mm 3 m/s 752 mmHg 76%
09:00 +31°C° 0 mm 3 m/s 752 mmHg 69%
10:00 +33°C° 0 mm 4 m/s 752 mmHg 63%
11:00 +35°C° 0 mm 4 m/s 751 mmHg 56%
12:00 +37°C° 0 mm 4 m/s 751 mmHg 48%
13:00 +38°C° 0 mm 3 m/s 750 mmHg 41%
14:00 +39°C° 0 mm 3 m/s 749 mmHg 39%
15:00 +39°C° 0 mm 3 m/s 748 mmHg 37%
16:00 +40°C° 0 mm 3 m/s 748 mmHg 35%
17:00 +38°C° 0 mm 4 m/s 748 mmHg 40%
18:00 +37°C° 0 mm 5 m/s 748 mmHg 45%
19:00 +35°C° 0 mm 5 m/s 748 mmHg 50%
20:00 +34°C° 0 mm 5 m/s 749 mmHg 56%
21:00 +33°C° 0 mm 4 m/s 750 mmHg 63%
22:00 +30°C° 0 mm 4 m/s 751 mmHg 70%
23:00 +30°C° 0 mm 4 m/s 751 mmHg 73%

20 Abril, Terça-feira

Tempo Temperatura Precipitação Vento Pressão Humidade
00:00 +29°C° 0 mm 4 m/s 750 mmHg 76%
01:00 +29°C° 0 mm 4 m/s 750 mmHg 79%
02:00 +29°C° 0 mm 3 m/s 750 mmHg 81%
03:00 +28°C° 0 mm 3 m/s 750 mmHg 82%
04:00 +28°C° 0 mm 3 m/s 750 mmHg 83%
05:00 +28°C° 0 mm 3 m/s 750 mmHg 83%
06:00 +28°C° 0 mm 3 m/s 751 mmHg 84%
07:00 +28°C° 0 mm 3 m/s 751 mmHg 84%
08:00 +30°C° 0 mm 3 m/s 752 mmHg 74%
09:00 +33°C° 0 mm 4 m/s 752 mmHg 65%
10:00 +35°C° 0 mm 4 m/s 752 mmHg 55%
11:00 +36°C° 0 mm 4 m/s 751 mmHg 50%
12:00 +37°C° 0 mm 4 m/s 750 mmHg 45%
13:00 +40°C° 0 mm 4 m/s 750 mmHg 40%
14:00 +38°C° 0 mm 4 m/s 749 mmHg 42%
15:00 +38°C° 0 mm 4 m/s 748 mmHg 43%
16:00 +37°C° 0 mm 5 m/s 748 mmHg 44%
17:00 +36°C° 0 mm 4 m/s 748 mmHg 48%
18:00 +35°C° 0 mm 4 m/s 748 mmHg 52%
19:00 +34°C° 0 mm 4 m/s 748 mmHg 56%
20:00 +33°C° 0 mm 4 m/s 749 mmHg 60%
21:00 +33°C° 0 mm 4 m/s 750 mmHg 63%
22:00 +32°C° 0 mm 4 m/s 750 mmHg 67%
23:00 +30°C° 0 mm 3 m/s 750 mmHg 70%

21 Abril, Quarta-feira

Tempo Temperatura Precipitação Vento Pressão Humidade
00:00 +30°C° 0 mm 3 m/s 750 mmHg 73%
01:00 +29°C° 0 mm 3 m/s 750 mmHg 75%
02:00 +29°C° 0 mm 3 m/s 750 mmHg 76%
03:00 +29°C° 0 mm 3 m/s 750 mmHg 77%
04:00 +28°C° 0 mm 3 m/s 750 mmHg 78%
05:00 +28°C° 0 mm 2 m/s 750 mmHg 78%
06:00 +28°C° 0 mm 2 m/s 751 mmHg 79%
07:00 +29°C° 0 mm 2 m/s 751 mmHg 79%
08:00 +30°C° 0 mm 2 m/s 752 mmHg 73%
09:00 +31°C° 0 mm 3 m/s 752 mmHg 68%
10:00 +33°C° 0 mm 3 m/s 752 mmHg 62%
11:00 +34°C° 0 mm 3 m/s 752 mmHg 57%
12:00 +35°C° 0 mm 3 m/s 751 mmHg 53%
13:00 +37°C° 0 mm 3 m/s 750 mmHg 48%
14:00 +37°C° 0 mm 3 m/s 750 mmHg 48%
15:00 +37°C° 0 mm 3 m/s 749 mmHg 47%
16:00 +37°C° 0 mm 3 m/s 749 mmHg 47%
17:00 +36°C° 0 mm 3 m/s 749 mmHg 49%
18:00 +35°C° 0 mm 3 m/s 749 mmHg 52%
19:00 +34°C° 0 mm 3 m/s 749 mmHg 54%
20:00 +33°C° 0.1 mm 3 m/s 749 mmHg 59%
21:00 +31°C° 0.1 mm 3 m/s 750 mmHg 64%
22:00 +30°C° 0.1 mm 2 m/s 750 mmHg 68%
23:00 +30°C° 0.1 mm 3 m/s 750 mmHg 71%

22 Abril, Quinta-feira

Tempo Temperatura Precipitação Vento Pressão Humidade
00:00 +29°C° 0.1 mm 3 m/s 750 mmHg 73%
01:00 +29°C° 0.1 mm 3 m/s 750 mmHg 76%
02:00 +28°C° 0 mm 3 m/s 750 mmHg 78%
03:00 +28°C° 0 mm 3 m/s 750 mmHg 80%
04:00 +28°C° 0 mm 3 m/s 750 mmHg 83%
05:00 +28°C° 0 mm 3 m/s 750 mmHg 83%
06:00 +28°C° 0 mm 2 m/s 751 mmHg 83%
07:00 +28°C° 0 mm 2 m/s 751 mmHg 83%
08:00 +30°C° 0 mm 2 m/s 751 mmHg 75%
09:00 +31°C° 0 mm 3 m/s 751 mmHg 67%
10:00 +34°C° 0 mm 3 m/s 752 mmHg 58%
11:00 +35°C° 0 mm 3 m/s 751 mmHg 54%
12:00 +36°C° 0 mm 3 m/s 751 mmHg 50%
13:00 +37°C° 0 mm 3 m/s 750 mmHg 45%
14:00 +37°C° 0 mm 3 m/s 749 mmHg 44%
15:00 +38°C° 0 mm 3 m/s 749 mmHg 43%
16:00 +38°C° 0 mm 4 m/s 748 mmHg 42%
17:00 +37°C° 0.1 mm 4 m/s 748 mmHg 47%
18:00 +35°C° 0.1 mm 4 m/s 749 mmHg 51%
19:00 +34°C° 0.1 mm 4 m/s 749 mmHg 56%
20:00 +32°C° 0.2 mm 5 m/s 749 mmHg 63%
21:00 +30°C° 0.2 mm 5 m/s 750 mmHg 70%
22:00 +29°C° 0.2 mm 5 m/s 750 mmHg 78%
23:00 +29°C° 0 mm 4 m/s 751 mmHg 80%
Mostrar mais

Necessitamos do seu Consentimento

A Meteoprog e os seus Fornecedores de Serviços podem armazenar e aceder a dados pessoais como cookies, identificadores do dispositivo ou outras tecnologias semelhantes existentes no seu dispositivo e processar estes dados para personalizar conteúdos e anúncios, assim como funcionalidades nas redes sociais e análise de tráfego.

  • Armazenar e/ou aceder a informações no seu dispositivo

    Os cookies, identificadores do dispositivo ou outras informações podem ser armazenados ou acedidos no seu dispositivo, para os fins acima indicados.

  • Anúncios e conteúdos personalizados, medição de anúncios e conteúdos, dados sobre o público-alvo e desenvolvimento de produtos

    Os anúncios e os conteúdos podem ser personalizados com base num perfil. Podem ser adicionados dados adicionais para uma maior personalização dos anúncios e dos conteúdos. A eficácia dos anúncios e dos conteúdos pode ser medida. Podem ser obtidas informações sobre o público que visualizou os anúncios e os conteúdos. Estes dados podem ser usados para desenvolver ou melhorar sistemas, softwares ou a experiência do utilizador.

Ao clicar em "Eu concordo”, permitirá o uso de cookies, identificadores do dispositivo e web beacons mencionados ou outras tecnologias semelhantes. As configurações do navegador do seu dispositivo podem ser alteradas.

Para certos fins, podem ser invocados interesses legítimos ao invés de consentimento. Pode ler mais informação sobre este assunto na nossa Política de Privacidade e Cookies.